Flag for Germany Weather past 2 weeks in Dietzenbach, Hesse, Germany

Now
54 °F

Overcast.


Feels Like: 54 °F
Forecast: 40 / 55 °F
Wind: 2 mph from Southwest

Location: Frankfurt / M-Flughafen

Current Time: Oct 23, 2014 at 5:12:06 PM

Latest Report: Oct 23, 2014 at 4:00 PM


Visibility: 14 mi

Pressure: 30.25 "Hg

Humidity: 77%

Dew point: 47 °F

Location of DietzenbachLocation

Historic Weather in Dietzenbach — Graph

°F

Dietzenbach temperature yesterday

Maximum temperature yesterday: 50 °F (at 6:00 PM)
Minimum temperature yesterday: 44 °F (at 6:00 AM)
Average temperature yesterday: 48 °F

Past Weeks' High & Low Weather Summary

 TemperatureHumidityPressure
High71 °F (Oct 19, 4:00 PM)100% (Oct 10, 12:00 AM)30.28 "Hg (Oct 10, 12:00 AM)
Low44 °F (Oct 22, 6:00 AM)61% (Oct 20, 4:00 PM)29.58 "Hg (Oct 21, 6:00 PM)
Average58 °F90%29.93 "Hg
* Reported Oct 8 4:00 PM — Oct 23 4:00 PM, Dietzenbach, Weather by CustomWeather, © 2014

Note: Actual official high and low records may vary slightly from our data, if they occured in-between our weather recording intervals... More about our weather records

Advertising

Dietzenbach weather history for previous 24 hours

 ConditionsComfort  
Time TempWeatherWind HumidityBarometerVisibility
4:00 PM
Oct 23
54 °FOvercast.2 mph77%30.25 "Hg14 mi
3:00 PM54 °FOvercast.3 mph75%30.26 "Hg12 mi
2:00 PM52 °FOvercast.3 mph80%30.27 "Hg14 mi
1:00 PM51 °FOvercast.3 mph81%30.28 "Hg14 mi
12:00 PM50 °FOvercast.5 mph82%30.28 "Hg12 mi
10:00 AM49 °FPartly sunny.3 mph83%30.26 "Hg14 mi
9:00 AM49 °FPartly sunny.5 mph85%30.25 "Hg12 mi
8:00 AM47 °FOvercast.5 mph89%30.23 "Hg12 mi
7:00 AM48 °FOvercast.5 mph86%30.22 "Hg14 mi
6:00 AM48 °FOvercast.6 mph83%30.21 "Hg16 mi
5:00 AM49 °FOvercast.3 mph81%30.24 "Hg16 mi
4:00 AM49 °FOvercast.5 mph81%30.23 "Hg16 mi
3:00 AM48 °FOvercast.6 mph80%30.23 "Hg19 mi
2:00 AM48 °FOvercast.6 mph79%30.21 "Hg19 mi
1:00 AM49 °FPassing clouds.6 mph79%30.20 "Hg22 mi
12:00 AM50 °FPassing clouds.6 mph70%30.19 "Hg25 mi
10:00 PM
Oct 22
50 °FPassing clouds.7 mph76%30.17 "Hg22 mi
9:00 PM50 °FPassing clouds.8 mph74%30.14 "Hg22 mi
8:00 PM49 °FPassing clouds.7 mph74%30.11 "Hg19 mi
7:00 PM50 °FPassing clouds.7 mph71%30.10 "Hg19 mi
6:00 PM50 °FOvercast.6 mph75%30.07 "Hg19 mi
Weather by CustomWeather, © 2014

See weather overviewHow to use our weather pages